Home   Weather   Langevåg   Past weeks

Flag for Norway Past Weather in Langevåg, Norway — Yesterday and Last 2 Weeks

45 °F

Scattered showers. Partly cloudy.

Feels Like: 37 °F
Forecast: 50 / 52 °F
Wind: 18 mph from West

Location: Alesund / Vigra

Current Time: Oct 28, 2016 at 9:42:42 PM

Latest Report: Oct 28, 2016 at 8:50 PM

Visibility: N/A

Pressure: 29.86 "Hg

Humidity: 76%

Dew Point: 37 °F

Location of LangevågLocation

Past Weather in Langevåg — Graph


Langevåg Temperature Yesterday

Maximum temperature yesterday: 54 °F (at 12:50 PM)
Minimum temperature yesterday: 48 °F (at 7:20 AM)
Average temperature yesterday: 50 °F

High & Low Weather Summary for the Past Weeks

High61 °F (Oct 18, 2:50 PM)100% (Oct 14, 12:50 AM)30.39 "Hg (Oct 14, 12:50 AM)
Low32 °F (Oct 14, 3:20 AM)31% (Oct 15, 6:20 PM)29.59 "Hg (Oct 27, 3:20 PM)
Average48 °F68%30.12 "Hg
* Reported Oct 13 8:20 PM — Oct 28 8:20 PM, Langevåg, Weather by CustomWeather, © 2016

Note: Actual official high and low records may vary slightly from our data, if they occured in-between our weather recording intervals... More about our weather records


Langevåg Weather History for the Previous 24 Hours

Scroll right to see more
Time TempWeatherWind HumidityBarometerVisibility
8:20 PM
Fri, Oct 28
45 °FSprinkles. Partly cloudy.24 mph71%29.86 "HgN/A
7:50 PM46 °FThundershowers. Partly cloudy.23 mph62%29.86 "HgN/A
7:20 PM45 °FRain showers. Partly cloudy.21 mph76%29.86 "HgN/A
6:50 PM45 °FScattered showers. Partly cloudy.26 mph76%29.86 "HgN/A
6:20 PM46 °FPartly cloudy.23 mph66%29.83 "HgN/A
5:50 PM46 °FScattered showers. Partly cloudy.23 mph66%29.83 "HgN/A
5:20 PM45 °FDrizzle. Broken clouds.24 mph71%29.83 "HgN/A
4:50 PM46 °FScattered showers. Broken clouds.25 mph66%29.80 "HgN/A
4:20 PM46 °FScattered showers. Broken clouds.26 mph66%29.77 "HgN/A
3:50 PM46 °FScattered showers. Broken clouds.28 mph71%29.77 "HgN/A
3:20 PM46 °FScattered showers. Broken clouds.26 mph66%29.77 "HgN/A
2:50 PM46 °FScattered showers. Broken clouds.26 mph71%29.74 "HgN/A
2:20 PM45 °FScattered showers. Broken clouds.28 mph81%29.74 "HgN/A
1:50 PM45 °FSprinkles. Broken clouds.25 mph76%29.71 "HgN/A
1:20 PM45 °FScattered showers. Broken clouds.25 mph76%29.71 "HgN/A
12:50 PM45 °FScattered showers. Broken clouds.20 mph81%29.71 "HgN/A
12:20 PM46 °FPartly sunny.26 mph76%29.71 "HgN/A
11:50 AM46 °FScattered showers. Scattered clouds.28 mph66%29.68 "HgN/A
11:20 AM46 °FScattered showers. Scattered clouds.28 mph71%29.68 "HgN/A
10:50 AM46 °FScattered showers. Scattered clouds.26 mph71%29.68 "HgN/A
10:20 AM46 °FScattered showers. Partly sunny.30 mph76%29.68 "HgN/A
9:50 AM45 °FScattered showers. Partly sunny.20 mph81%29.65 "HgN/A
9:20 AM46 °FBroken clouds.23 mph66%29.65 "HgN/A
8:50 AM46 °FPassing clouds.25 mph66%29.65 "HgN/A
8:20 AM46 °FPartly cloudy.20 mph71%29.65 "HgN/A
7:50 AM43 °FPassing clouds.24 mph76%29.65 "HgN/A
7:20 AM43 °FLight rain. Passing clouds.24 mph81%29.65 "Hg4 mi
6:50 AM46 °FThunderstorms. Partly cloudy.20 mph76%29.65 "HgN/A
6:20 AM46 °FScattered showers. Partly cloudy.29 mph66%29.62 "HgN/A
5:50 AM46 °FPartly cloudy.35 mph66%29.62 "HgN/A
5:20 AM48 °FPartly cloudy.32 mph66%29.62 "HgN/A
4:50 AM48 °FPassing clouds.32 mph66%29.62 "HgN/A
4:20 AM48 °FPassing clouds.30 mph66%29.62 "HgN/A
3:50 AM48 °FPassing clouds.25 mph62%29.62 "HgN/A
3:20 AM48 °FPassing clouds.26 mph62%29.62 "HgN/A
2:50 AM48 °FPassing clouds.25 mph66%29.62 "HgN/A
2:20 AM46 °FPassing clouds.23 mph76%29.62 "HgN/A
1:50 AM48 °FPassing clouds.26 mph66%29.62 "HgN/A
1:20 AM48 °FLight rain. Partly cloudy.23 mph66%29.62 "HgN/A
12:50 AM46 °FPassing clouds.18 mph71%29.62 "HgN/A
12:20 AM48 °FPassing clouds.21 mph76%29.62 "HgN/A
11:50 PM
Thu, Oct 27
48 °FPassing clouds.17 mph66%29.62 "HgN/A
11:20 PM50 °FPartly cloudy.18 mph62%29.62 "HgN/A
10:50 PM48 °FPassing clouds.17 mph62%29.62 "HgN/A
10:20 PM50 °FPartly cloudy.18 mph62%29.62 "HgN/A
9:50 PM48 °FPartly cloudy.21 mph71%29.62 "HgN/A
9:20 PM48 °FScattered showers. Passing clouds.20 mph76%29.62 "HgN/A
Weather by CustomWeather, © 2016

See weather overviewHow to use our weather pages